P/2016 J3 ( STEREO )

Japanese version
Home page
Updated on July 17, 2016

---------------------------------------------------------------------

* Profile

Discovery Date May 11, 2016
Magnitude 10 mag
Discoverer Scott Ferguson (HI-1 images, STEREO-A spacecraft)

* Pictures

* Orbital Elements

T 2016 May 21.44761 TT                                  MPCW
q   0.4669363            (2000.0)            P               Q
n   0.12784370     Peri.  210.73788     -0.28962000     -0.86007886
a   3.9025622      Node   259.00850     +0.94191731     -0.17816014
e   0.8803513      Incl.   25.32993     +0.17003541     -0.47804112
P   7.71
From 117 observations 2016 May 11-13.  Orbit uncertain.

* Finding Charts

* Magnitudes Graph

        m1 = 15.0 + 5 log d + 10.0 log r

---------------------------------------------------------------------

The orbital elements are published on M.P.E.C. 2016-K41.
The charts are made with StellaNavigator Ver.10 (AstroArts).
The magnitudes graphs are made with Comet for Windows.

---------------------------------------------------------------------

Copyright(C) Seiichi Yoshida (comet@aerith.net). All rights reserved.